Location: Coupvray
(48.8929°N, 2.7967°E)
Time: 04:34:57
(UTC+00:00)

Cosmos 1378 Rocket - Pass Details

Date: 14 July 2020
Orbit: 602 x 626 km, 82.5° (Epoch: 06 August)

Event Time Altitude Azimuth Distance (km) Brightness Sun altitude
Rises 02:15:34 0° 353° (N) 2,899 7.8 -12.8°
Reaches altitude 10° 02:17:49 10° 357° (N) 1,993 7.0 -12.6°
Maximum altitude 02:22:12 60° 78° (ENE) 716 4.1 -12.2°
Drops below altitude 10° 02:26:33 10° 158° (SSE) 1,990 5.9 -11.8°
Enters shadow 02:28:29 - 162° (SSE) 2,766 6.6 -11.6°
